Flag for Greece Weather past 2 weeks in Iráklion, Crete, Greece

Now
63 °F

Passing clouds.


Feels Like: 63 °F
Forecast: 48 / 64 °F
Wind: 5 mph from North

Location: Heraklion Airport

Current Time: Apr 2, 2015 at 11:51:44 AM

Latest Report: Apr 2, 2015 at 11:20 AM


Visibility: N/A

Pressure: 29.92 "Hg

Humidity: 73%

Dew point: 54 °F

Location of IráklionLocation

Historic Weather in Iráklion — Graph

°F

Iráklion temperature yesterday

Maximum temperature yesterday: 72 °F (at 11:50 AM)
Minimum temperature yesterday: 50 °F (at 1:50 AM)
Average temperature yesterday: 61 °F

Past Weeks' High & Low Weather Summary

 TemperatureHumidityPressure
High73 °F (Mar 27, 11:50 AM)94% (Mar 24, 6:20 AM)30.18 "Hg (Mar 24, 6:20 AM)
Low43 °F (Mar 20, 1:50 AM)41% (Apr 1, 11:50 AM)29.59 "Hg (Mar 28, 5:50 AM)
Average58 °F70%29.93 "Hg
* Reported Mar 18 9:20 AM — Apr 2 10:50 AM, Iráklion, Weather by CustomWeather, © 2015

Note: Actual official high and low records may vary slightly from our data, if they occured in-between our weather recording intervals... More about our weather records

Advertising

Iráklion weather history for previous 24 hours

 ConditionsComfort  
Time TempWeatherWind HumidityBarometerVisibility
10:50 AM
Thu, Apr 2
63 °FPassing clouds.5 mph73%29.92 "HgN/A
10:20 AM64 °FSunny.5 mph64%29.92 "Hg10 mi
9:50 AM64 °FSunny.No wind64%29.92 "Hg10 mi
9:20 AM59 °FSunny.5 mph77%29.89 "Hg10 mi
8:50 AM59 °FSunny.7 mph77%29.89 "Hg10 mi
8:20 AM55 °FPassing clouds.6 mph82%29.86 "HgN/A
7:50 AM54 °FPassing clouds.6 mph88%29.86 "HgN/A
7:20 AM54 °FPassing clouds.8 mph77%29.86 "HgN/A
6:50 AM55 °FPassing clouds.9 mph72%29.86 "HgN/A
6:20 AM57 °FPassing clouds.8 mph77%29.86 "HgN/A
5:50 AM57 °FPassing clouds.8 mph77%29.86 "HgN/A
4:50 AM57 °FPassing clouds.8 mph77%29.86 "HgN/A
3:50 AM57 °FPassing clouds.5 mph77%29.86 "HgN/A
3:20 AM57 °FPassing clouds.8 mph77%29.86 "HgN/A
2:50 AM57 °FPassing clouds.10 mph77%29.86 "HgN/A
2:20 AM57 °FPassing clouds.13 mph77%29.83 "HgN/A
1:50 AM57 °FPassing clouds.13 mph77%29.83 "HgN/A
1:20 AM57 °FPassing clouds.12 mph77%29.83 "HgN/A
12:50 AM57 °FPassing clouds.10 mph77%29.83 "HgN/A
12:20 AM57 °FPassing clouds.13 mph77%29.83 "HgN/A
11:50 PM
Wed, Apr 1
57 °FPassing clouds.13 mph77%29.83 "HgN/A
11:20 PM57 °FPassing clouds.12 mph77%29.83 "HgN/A
10:50 PM57 °FPassing clouds.12 mph77%29.83 "HgN/A
10:20 PM59 °FPassing clouds.12 mph72%29.83 "HgN/A
9:50 PM59 °FPassing clouds.10 mph72%29.83 "HgN/A
9:20 PM61 °FPassing clouds.7 mph77%29.83 "HgN/A
8:50 PM61 °FPassing clouds.3 mph77%29.83 "HgN/A
8:20 PM61 °FPassing clouds.3 mph83%29.83 "HgN/A
7:50 PM61 °FPassing clouds.10 mph83%29.83 "HgN/A
7:20 PM63 °FPassing clouds.12 mph83%29.83 "HgN/A
6:50 PM63 °FPassing clouds.10 mph83%29.83 "HgN/A
6:20 PM66 °FPassing clouds.9 mph78%29.83 "HgN/A
5:50 PM66 °FPassing clouds.7 mph78%29.83 "HgN/A
5:20 PM66 °FSunny.7 mph78%29.86 "Hg10 mi
4:50 PM66 °FSunny.7 mph78%29.86 "Hg10 mi
4:20 PM66 °FPassing clouds.5 mph73%29.86 "HgN/A
3:50 PM66 °FPassing clouds.21 mph73%29.86 "HgN/A
3:20 PM66 °FPassing clouds.12 mph68%29.86 "HgN/A
2:50 PM66 °FPassing clouds.16 mph68%29.86 "HgN/A
2:20 PM70 °FPassing clouds.15 mph57%29.89 "HgN/A
1:50 PM70 °FPassing clouds.12 mph57%29.89 "HgN/A
1:20 PM72 °FSunny.15 mph53%29.89 "Hg10 mi
12:50 PM72 °FSunny.15 mph53%29.89 "Hg10 mi
12:20 PM72 °FSunny.15 mph47%29.92 "Hg10 mi
11:50 AM72 °FSunny.13 mph41%29.92 "Hg10 mi
11:20 AM68 °FSunny.10 mph53%29.92 "Hg10 mi
Weather by CustomWeather, © 2015

See weather overviewHow to use our weather pages